Weather History for PAGY - October, 2011

Change the Weather History Date:

Friday, October 21, 2011

  Actual Average Record
Temperature  
Mean Temperature 40 °F -  
Max Temperature 46 °F 44 °F 57 °F (1986)
Min Temperature 33 °F 35 °F 25 °F (1966)
Degree Days  
Heating Degree Days 26    
Moisture  
Dew Point 30 °F    
Average Humidity 72    
Maximum Humidity 96    
Minimum Humidity 37    
Precipitation  
Precipitation 0.08 in - - ()
Sea Level Pressure  
Sea Level Pressure 29.61 in    
Wind  
Wind Speed 4 mph (NNE)    
Max Wind Speed 17 mph    
Max Gust Speed 23 mph    
Visibility 10 miles    
Events Rain    
Averages and records for this station are not official NWS values.
T = Trace of Precipitation, MM = Missing Value Source: NWS Daily Summary

Daily Weather History Graph

Daily Weather History Graph

Search for Another Location

Airport or City:

Trip Planner

Search our weather history database for the weather conditions in past years. The results will help you decide how hot, cold, wet, or windy it might be!

Date:

Astronomy

Oct. 21, 2011 Rise Set
Actual Time 7:53 AM AKDT 5:36 PM AKDT
Civil Twilight 7:11 AM AKDT 6:19 PM AKDT
Nautical Twilight 6:23 AM AKDT 7:06 PM AKDT
Astronomical Twilight 5:36 AM AKDT 7:53 PM AKDT
Moon 12:27 AM AKDT (10/21) 3:37 PM AKDT (10/21)
Length of Visible Light 11h 07m
Length of Day
9h 43m
Waning Crescent, 32% of the Moon is Illuminated
Oct 21
Waning Crescent
Oct 26
New
Nov 2
First Quarter
Nov 10
Full
Nov 18
Last Quarter

Hourly Weather History & Observations

Time (AKDT) Temp. Windchill Dew Point Humidity Pressure Visibility Wind Dir Wind Speed Gust Speed Precip Events Conditions
12:53 AM 39.0 °F - 36.0 °F 89% 29.84 in 10.0 mi Calm Calm - N/A   Clear
1:53 AM 37.0 °F - 35.1 °F 93% 29.83 in 10.0 mi Calm Calm - N/A   Overcast
2:53 AM 37.0 °F - 35.1 °F 93% 29.81 in 10.0 mi Calm Calm - N/A   Clear
3:53 AM 34.0 °F 31.0 °F 33.1 °F 96% 29.78 in 10.0 mi NNE 3.5 mph - N/A   Clear
4:53 AM 33.1 °F - 32.0 °F 96% 29.74 in 10.0 mi Calm Calm - N/A   Clear
5:53 AM 34.0 °F 31.0 °F 32.0 °F 92% 29.70 in 10.0 mi Variable 3.5 mph - N/A   Clear
6:53 AM 36.0 °F - 32.0 °F 86% 29.66 in 10.0 mi Calm Calm - N/A   Clear
7:53 AM 37.9 °F - 30.0 °F 73% 29.62 in 10.0 mi Calm Calm - N/A   Clear
8:53 AM 41.0 °F 34.3 °F 26.1 °F 55% 29.59 in 10.0 mi NNE 11.5 mph 16.1 mph N/A   Clear
9:53 AM 43.0 °F 36.4 °F 25.0 °F 49% 29.57 in 10.0 mi NNE 12.7 mph 21.9 mph N/A   Clear
10:53 AM 45.0 °F 38.9 °F 24.1 °F 44% 29.55 in 10.0 mi NNE 12.7 mph - N/A   Clear
11:53 AM 46.0 °F 39.0 °F 24.1 °F 42% 29.53 in 10.0 mi NNE 17.3 mph 23.0 mph N/A   Clear
12:53 PM 46.9 °F - 21.9 °F 37% 29.50 in 10.0 mi NE 12.7 mph 18.4 mph N/A   Mostly Cloudy
1:53 PM 46.0 °F 41.4 °F 23.0 °F 40% 29.50 in 10.0 mi NE 9.2 mph - N/A   Mostly Cloudy
2:53 PM 46.0 °F 41.9 °F 24.1 °F 42% 29.50 in 10.0 mi North 8.1 mph 16.1 mph N/A   Scattered Clouds
3:53 PM 44.1 °F 40.1 °F 26.1 °F 49% 29.51 in 10.0 mi Variable 6.9 mph - N/A   Mostly Cloudy
4:53 PM 43.0 °F 37.2 °F 28.0 °F 56% 29.52 in 10.0 mi NNE 10.4 mph - N/A   Overcast
5:53 PM 42.1 °F 40.2 °F 28.9 °F 60% 29.53 in 10.0 mi Variable 3.5 mph - N/A   Overcast
6:53 PM 39.9 °F 37.8 °F 30.9 °F 70% 29.54 in 10.0 mi Variable 3.5 mph - 0.00 in   Overcast
7:53 PM 39.9 °F - 32.0 °F 73% 29.54 in 10.0 mi Calm Calm - N/A   Overcast
8:53 PM 39.0 °F 36.8 °F 34.0 °F 82% 29.54 in 10.0 mi NE 3.5 mph - 0.00 in Rain Light Rain
9:53 PM 39.0 °F - 34.0 °F 82% 29.57 in 10.0 mi Calm Calm - 0.00 in Rain Light Rain
10:31 PM 37.4 °F - 35.6 °F 93% 29.57 in 10.0 mi Calm Calm - 0.01 in Rain Light Rain
10:53 PM 37.9 °F - 36.0 °F 93% 29.58 in 10.0 mi Calm Calm - 0.01 in Rain Light Rain
11:02 PM 37.4 °F - 35.6 °F 93% 29.57 in 9.0 mi Calm Calm - 0.00 in Rain Light Rain
11:53 PM 37.0 °F - 35.1 °F 93% 29.59 in 6.0 mi Calm Calm - 0.07 in Rain Light Rain